Lapse_Rate
7.1 7.0 7.3 7.6 7.4 7.4 7.6 6.6 6.2 5.8 5.5 4.9 5.5 5.7 5.8 5.7 5.5 5.6 5.5 5.4 5.4 5.2 5.2 5.1 5.0 4.9 5.0 5.1 5.9 5.4 5.5 5.0 5.2 5.3 5.5 5.4 5.0 5.8 5.7 5.8 6.0 6.0 5.9 5.4
7.1 7.5 7.6 7.8 8.0 7.7 7.4 6.5 5.8 5.9 5.9 5.4 5.7 5.8 5.9 6.0 5.5 5.5 5.6 5.5 5.4 5.2 5.0 4.9 5.2 4.9 5.2 5.1 5.7 5.5 5.5 5.6 5.5 5.6 5.6 5.4 4.9 5.2 5.5 5.9 5.9 6.0 5.9 5.8
7.2 8.2 8.2 7.9 8.1 8.2 7.1 6.4 6.1 6.9 5.7 5.4 5.6 5.5 5.2 5.9 5.3 5.7 5.8 5.2 5.4 5.4 5.2 5.0 5.3 5.2 5.2 5.3 5.6 5.5 5.4 5.8 5.4 5.2 5.5 5.9 5.9 5.1 5.3 5.6 6.0 6.1 6.1 6.0
7.5 8.2 8.2 8.4 8.4 8.4 8.2 6.9 6.3 6.7 5.9 5.4 5.1 5.0 5.1 5.7 5.7 5.6 5.3 5.0 5.3 5.3 5.1 5.1 5.2 5.2 5.3 5.5 5.4 5.7 5.7 5.8 5.2 5.6 5.6 5.4 5.7 5.4 5.4 5.6 5.7 5.9 6.0 5.9
7.7 8.2 8.4 8.7 8.6 8.7 8.2 6.7 5.3 6.6 6.2 5.4 5.4 5.4 5.7 5.6 5.6 5.8 5.5 5.3 5.1 5.3 5.4 5.1 4.9 5.7 5.7 5.3 5.3 5.4 5.7 6.0 5.6 5.8 5.5 5.2 5.7 5.6 5.4 5.5 5.7 5.8 5.8 5.9
8.0 8.3 8.5 8.5 8.7 9.1 7.8 6.4 6.5 6.1 6.4 6.0 6.5 5.4 5.9 5.9 7.4 6.2 5.8 5.4 5.2 5.6 5.0 5.1 5.0 5.0 5.5 5.5 5.4 5.6 5.6 5.8 5.8 5.6 5.5 5.8 5.9 5.6 5.6 5.8 6.0 5.6 6.0 5.9
8.1 8.1 8.7 8.4 8.5 9.1 8.2 7.5 6.8 6.2 5.6 5.4 6.1 5.6 7.5 7.2 7.5 7.2 6.1 5.3 5.1 4.9 5.4 5.2 5.3 5.3 5.2 5.7 5.5 5.5 5.6 5.8 5.8 5.7 5.8 5.6 6.0 6.1 6.0 5.9 6.1 6.0 6.0 6.2
8.7 8.4 8.2 8.1 8.2 8.4 8.3 8.1 7.5 6.4 6.0 6.1 6.4 6.1 6.8 6.8 6.9 6.9 5.7 5.6 5.4 5.8 5.6 5.5 5.8 5.5 5.4 5.4 6.0 5.8 5.5 5.9 5.8 5.8 5.9 5.9 5.4 5.7 5.9 6.2 6.2 6.0 6.0 6.1
9.2 9.5 9.4 8.9 8.4 8.3 8.6 8.4 8.4 7.9 6.8 5.8 5.7 6.6 7.0 7.5 7.8 7.2 6.1 5.1 5.7 5.9 6.0 5.9 5.7 5.9 5.5 5.6 6.0 5.9 5.7 5.9 6.0 6.0 6.0 6.1 6.1 6.0 6.0 6.1 6.3 6.0 6.0 6.3
9.3 8.8 9.1 9.3 9.1 8.6 8.6 9.1 9.1 9.0 7.0 6.0 7.0 7.0 7.1 7.4 7.2 7.1 6.6 5.8 5.8 6.1 5.7 5.9 5.6 5.3 5.2 5.4 6.2 6.1 6.1 5.9 6.0 5.9 6.2 6.0 5.9 6.1 6.1 5.9 6.1 6.1 6.2 6.0
8.7 8.9 9.0 9.3 9.4 8.7 8.7 8.5 8.7 9.0 9.3 8.0 6.7 7.6 7.3 7.2 7.3 7.0 6.2 6.0 7.1 6.8 6.0 5.6 6.3 5.9 5.6 5.4 6.0 6.0 6.1 6.1 6.0 6.1 5.9 6.1 6.0 5.9 5.9 6.0 5.9 5.9 6.1 6.1
8.5 8.5 8.7 9.0 9.5 9.4 8.9 8.7 8.7 8.6 8.7 9.1 8.9 8.2 7.9 7.7 8.2 7.9 6.7 6.6 6.4 6.7 6.1 5.9 6.3 6.0 6.0 5.3 5.5 6.0 5.8 6.0 6.0 5.9 6.0 6.0 6.0 6.0 5.9 5.7 5.9 5.9 5.8 5.8
8.0 8.2 8.3 8.9 9.4 9.4 9.3 9.0 8.8 8.8 8.8 8.8 8.9 8.5 8.4 7.6 7.4 7.1 8.0 7.1 6.9 6.1 6.1 5.8 5.7 5.9 5.9 5.4 5.7 5.9 6.2 6.1 5.9 5.9 5.9 5.7 5.8 5.8 5.8 5.9 5.7 5.8 5.7 5.8
8.0 8.0 8.0 8.2 7.8 8.2 8.5 9.2 9.2 8.8 8.8 8.7 9.1 8.8 8.6 7.6 6.8 6.2 6.7 7.2 6.9 6.3 6.5 5.9 5.6 6.0 5.2 5.3 5.1 5.9 6.2 6.2 6.3 5.9 6.0 5.8 5.5 5.6 5.5 5.4 5.9 5.8 5.4 5.5
8.0 8.0 8.2 8.0 8.0 8.0 8.8 8.8 9.2 9.4 8.6 8.8 9.0 8.8 8.2 7.9 7.0 7.2 7.4 6.5 7.0 7.1 6.8 6.2 6.2 6.4 6.3 5.6 5.5 5.9 5.5 5.8 6.2 5.6 6.2 5.8 6.0 5.5 5.8 5.8 5.5 5.9 5.8 5.5
8.5 8.4 8.3 8.1 7.6 8.1 8.5 8.5 8.4 9.0 8.7 8.9 8.9 8.8 7.8 7.9 7.3 7.2 7.0 5.8 5.8 7.1 6.8 6.6 6.1 6.1 5.9 6.0 5.7 5.4 5.2 5.1 6.1 6.1 6.0 5.8 5.3 5.3 5.3 5.2 4.8 5.3 5.8 5.8
8.2 7.9 8.0 8.1 7.5 7.9 8.1 7.4 7.5 7.7 8.2 8.5 8.5 8.2 7.3 7.6 7.9 7.1 6.6 4.5 6.2 7.2 6.6 6.8 6.7 6.5 6.2 6.2 5.9 5.8 5.0 5.3 5.2 5.5 5.5 5.8 5.2 5.1 4.9 4.8 4.7 4.8 5.3 5.5
8.5 8.3 8.0 7.4 7.8 7.5 6.8 6.8 6.9 6.5 7.1 7.4 6.8 6.4 6.2 5.9 6.3 6.6 6.7 6.9 6.5 6.4 6.9 6.9 6.9 6.3 6.0 5.9 6.2 5.5 5.4 5.6 5.9 5.5 5.6 5.7 5.0 4.8 4.8 4.9 4.8 4.7 4.8 5.2
8.0 8.6 8.3 7.9 7.9 7.1 7.5 7.2 7.0 6.5 6.5 6.7 6.4 6.1 6.4 6.1 5.6 6.1 6.4 6.0 6.5 6.7 6.9 6.0 5.4 6.0 5.8 5.4 5.8 5.9 5.8 6.1 6.5 6.3 6.0 6.0 5.9 5.4 5.0 5.1 4.8 4.9 5.0 5.2
7.8 8.0 8.2 7.6 7.2 6.4 6.8 7.0 6.9 6.7 6.4 6.2 6.2 6.2 6.5 6.7 6.6 6.7 7.0 6.9 7.0 7.0 6.8 6.8 6.2 6.3 6.0 5.9 6.2 6.0 5.6 4.8 6.2 6.4 6.1 6.3 6.1 5.6 5.4 5.7 5.7 5.8 5.3 5.2
7.6 7.7 7.6 7.5 7.6 6.4 6.8 6.6 6.7 6.7 6.7 6.5 6.5 6.5 6.5 7.2 7.4 7.6 7.5 7.4 7.5 7.2 7.0 7.1 6.6 6.6 6.5 6.3 6.3 6.1 5.4 6.3 6.4 6.1 6.3 6.7 6.5 6.4 6.4 6.2 6.3 6.1 5.6 5.2
7.6 7.3 6.9 7.2 7.1 7.2 7.4 7.3 7.2 6.8 6.4 6.6 6.8 6.5 6.8 7.1 7.3 7.8 8.1 7.9 7.5 7.7 7.4 7.5 7.4 7.1 7.0 7.1 7.1 6.8 6.5 6.5 6.4 6.4 6.4 6.5 6.9 6.6 6.1 5.7 5.6 5.9 5.5 5.3
8.2 7.7 7.4 7.0 6.4 6.8 7.0 7.2 7.1 6.7 7.1 6.7 6.4 6.6 6.8 7.0 7.1 7.2 7.7 7.7 7.6 7.0 7.3 6.9 7.0 7.1 6.9 6.8 6.8 6.8 7.0 6.8 6.8 6.6 6.6 6.8 6.7 6.3 6.0 5.9 5.9 5.8 5.4 5.6
7.5 7.5 7.1 7.1 6.8 7.5 7.7 7.6 7.8 7.4 7.2 7.0 6.5 6.1 5.9 6.6 7.0 7.2 7.3 7.3 7.1 7.1 7.3 6.9 6.7 6.7 6.9 6.9 6.9 6.8 6.6 6.7 6.9 6.6 6.4 6.3 6.3 6.0 6.1 5.9 5.9 6.1 5.9 5.8
7.7 7.5 7.4 7.1 7.1 6.8 6.4 6.9 7.1 6.9 6.7 6.7 6.2 6.1 5.8 6.1 6.9 6.9 7.0 7.1 7.0 6.8 6.9 7.0 7.0 6.7 6.8 6.6 6.4 6.2 6.2 6.1 5.8 6.1 6.2 6.0 5.9 6.0 5.7 6.1 6.0 5.9 5.8 5.6
7.7 7.6 7.4 6.9 6.8 6.8 6.9 6.9 6.6 6.5 6.2 6.2 5.9 5.7 5.4 5.6 6.1 6.4 6.5 6.7 6.6 6.6 6.6 6.7 6.7 6.7 6.4 6.0 6.0 6.1 6.2 6.2 6.3 6.0 5.9 5.9 5.9 5.7 5.9 5.8 5.8 5.7 5.9 5.7
Wind_Speed
4 2 7 11 12 16 7 7 13 9 7 5 2 2 10 7 9 13 10 12 12 13 12 18 17 16 11 9 13 13 8 6 4 2 2 3 3 3 3 11 15 11 12 9
2 10 11 15 15 15 14 10 11 8 15 3 5 6 10 11 6 8 7 13 14 11 13 16 17 16 13 9 12 9 7 7 4 3 1 2 2 3 2 7 10 14 13 7
9 12 18 15 12 14 15 16 11 10 11 6 10 3 7 10 7 10 7 5 10 19 17 16 18 18 13 12 12 10 8 8 4 2 3 2 4 3 3 1 1 4 10 7
9 15 14 11 10 8 3 13 14 21 9 4 8 2 6 10 15 8 9 6 4 17 15 17 18 18 15 13 11 11 9 8 6 6 1 4 3 4 3 3 2 3 7 6
11 10 9 9 9 13 8 24 17 20 6 9 4 1 4 11 18 20 13 6 6 15 17 15 19 20 17 15 14 13 10 8 10 8 7 6 3 2 3 2 4 3 3 5
9 10 7 8 7 4 19 17 9 4 4 3 10 4 7 12 27 21 14 10 8 8 13 16 12 20 18 15 14 13 14 9 9 11 12 9 7 5 3 3 4 4 3 4
8 10 9 9 4 11 19 12 2 1 3 4 4 8 15 13 18 24 23 14 12 13 10 13 14 15 15 19 17 13 13 12 9 8 8 8 7 4 7 6 4 3 3 3
6 6 7 3 5 7 11 10 5 5 2 5 7 6 7 16 15 20 22 15 15 15 11 14 15 11 16 15 19 17 13 12 12 8 8 7 8 5 4 6 4 5 5 4
4 6 6 10 9 8 9 6 15 8 4 4 6 4 14 8 12 17 19 17 18 14 15 14 14 14 8 15 18 18 14 11 11 8 7 6 6 6 5 7 4 4 5 6
7 4 8 6 8 11 7 5 2 3 8 4 7 6 3 10 5 4 14 18 16 10 14 15 17 12 9 19 17 18 16 16 14 11 7 6 6 5 4 4 4 2 2 4
7 4 10 9 5 7 5 5 3 1 3 3 3 4 7 16 4 3 8 9 13 13 14 15 17 14 10 11 16 15 14 12 9 9 8 7 6 7 5 4 4 2 2 5
8 3 5 8 9 11 8 8 7 5 8 2 5 5 8 16 10 9 14 15 13 16 11 15 17 16 9 7 15 15 12 13 9 8 8 7 7 6 6 5 6 5 4 3
6 5 5 10 7 6 5 8 6 4 2 5 3 4 12 11 12 17 18 17 14 12 11 13 11 11 8 7 7 7 8 8 8 6 8 7 7 7 7 7 6 6 5 6
4 4 4 1 7 10 8 12 9 5 2 5 4 5 10 9 10 3 9 13 11 19 17 15 14 12 9 7 6 3 5 6 7 6 7 7 5 3 1 6 6 7 6 5
3 6 5 8 10 9 7 14 14 8 9 5 6 6 9 9 7 4 9 18 13 13 14 14 16 15 13 7 6 5 2 5 6 5 6 7 4 1 4 6 6 6 6 6
5 4 6 5 12 10 6 13 21 15 14 9 12 7 2 8 2 11 10 20 21 17 11 13 14 16 13 14 10 5 9 3 3 5 8 7 5 7 2 3 9 5 1 4
3 3 5 0 8 10 4 14 18 12 16 5 5 5 6 6 8 6 15 7 4 12 13 14 12 11 8 6 11 12 13 9 5 5 5 8 8 8 8 5 2 6 6 3
3 1 2 2 6 2 1 13 9 14 13 14 13 11 8 10 7 6 6 8 11 12 10 9 8 9 9 6 7 7 10 9 7 6 6 5 5 4 5 6 4 1 3 1
14 3 3 2 1 1 4 5 6 7 6 7 7 7 12 11 11 11 9 11 10 10 9 8 7 7 9 7 7 7 6 7 6 5 6 4 5 5 5 6 4 4 6 6
11 13 2 5 4 1 3 10 7 5 5 4 6 6 5 5 5 3 9 12 11 10 7 7 7 7 10 7 7 10 7 8 6 5 5 6 6 6 7 5 5 4 6 8
4 4 7 8 3 3 5 9 8 3 4 9 7 7 3 5 4 5 13 14 11 8 8 6 9 7 7 7 7 8 6 7 4 4 5 6 6 6 5 6 5 5 6 6
1 2 3 3 4 2 2 7 1 4 5 11 5 4 5 8 9 11 10 12 11 9 8 8 9 7 5 6 7 7 8 4 5 5 8 7 6 5 4 6 5 6 6 6
1 5 5 6 5 5 3 4 5 5 5 3 8 9 10 11 11 12 8 10 7 8 7 8 8 7 7 6 5 6 3 3 5 8 8 9 9 8 7 6 4 5 4 4
2 3 4 5 8 7 7 7 8 7 6 7 9 16 12 12 11 10 7 8 7 8 8 6 7 8 7 6 6 5 4 5 6 6 5 6 8 8 7 7 6 6 5 4
5 8 7 3 5 4 7 8 7 7 8 9 7 12 12 10 11 9 9 8 6 6 6 6 6 5 5 6 6 6 5 5 5 5 4 5 6 7 7 7 4 5 4 3
1 3 2 3 6 5 5 7 5 8 8 7 9 12 12 9 7 6 6 5 6 6 6 6 7 7 5 4 4 4 4 5 4 5 4 3 4 5 4 5 4 9 8 8
Wind_Direction
180 155 216 237 241 256 102 93 102 123 121 102 67 294 275 330 345 162 192 160 155 152 149 135 141 139 133 112 128 143 167 137 143 107 65 55 88 108 118 146 151 153 158 157
225 225 232 235 244 244 78 112 117 128 153 108 133 273 313 309 299 303 199 174 167 152 147 144 146 142 143 132 130 144 146 144 138 116 116 91 85 57 134 155 160 167 158 184
218 243 219 237 251 252 134 165 202 148 138 95 130 300 265 294 274 274 294 256 177 159 160 141 150 150 157 144 148 139 150 159 132 87 7 58 79 42 59 122 189 191 157 166
236 258 246 218 252 245 122 11 181 145 138 149 238 158 209 247 259 249 256 229 233 162 160 153 156 156 162 166 161 148 152 153 117 125 343 297 167 143 186 175 203 207 186 192
251 251 264 266 217 253 136 107 218 162 121 110 237 115 232 219 248 235 224 177 209 167 153 160 158 164 171 165 168 161 160 161 139 166 198 235 244 196 178 172 178 185 201 199
248 283 249 258 240 86 145 132 115 64 87 133 177 183 235 206 221 222 217 177 215 185 162 170 156 151 170 165 167 165 160 169 155 165 187 189 209 203 171 188 179 177 189 220
277 265 276 237 287 140 120 136 120 38 55 247 186 160 240 232 216 211 210 183 201 192 187 172 163 169 163 166 168 162 163 161 158 169 177 173 180 193 152 164 183 186 204 221
225 286 262 282 217 220 174 168 224 131 88 327 143 211 262 296 211 200 204 186 204 195 191 175 181 155 169 169 166 162 164 159 161 173 186 178 167 177 191 203 173 208 214 212
327 253 240 213 214 224 263 186 228 102 50 66 298 320 311 7 148 177 188 187 201 200 193 190 188 181 163 171 164 159 161 162 166 171 168 177 184 170 209 223 195 193 206 189
277 305 285 278 201 234 195 255 238 284 151 172 195 181 221 18 17 131 185 188 204 207 194 191 190 192 164 163 164 162 161 168 170 160 166 177 180 173 185 173 187 192 103 169
332 352 287 342 165 195 286 294 309 196 212 196 117 272 184 143 159 3 306 281 227 219 214 190 185 183 175 155 154 161 164 158 163 148 156 167 181 175 194 196 211 251 151 146
356 272 305 275 294 180 206 228 222 137 284 234 166 219 163 153 155 161 212 252 262 241 211 166 162 166 173 143 156 161 162 163 160 145 160 173 172 178 187 208 200 197 196 175
342 336 343 328 337 2 208 255 260 243 285 264 196 244 127 185 164 209 212 232 243 167 123 125 132 152 124 101 99 121 128 118 120 112 163 179 189 182 198 214 206 201 188 193
14 259 223 200 257 289 311 325 260 254 245 258 277 167 154 166 159 239 305 263 222 144 139 132 122 115 97 104 100 132 157 133 130 99 125 123 89 34 263 222 218 193 190 190
335 264 286 337 253 304 291 302 319 259 252 221 173 113 101 130 146 177 60 18 261 121 126 133 137 133 133 130 111 96 159 14 52 79 136 132 186 223 340 349 322 209 187 188
293 283 27 345 359 306 314 8 17 4 6 35 92 80 168 167 155 43 33 12 297 129 135 138 152 157 163 162 146 141 111 295 196 190 153 146 202 201 197 300 295 295 71 190
270 49 23 123 337 321 66 360 39 42 24 34 55 65 127 70 68 59 71 293 357 62 114 148 158 151 152 180 136 156 147 152 160 168 143 151 172 183 202 133 294 318 276 220
255 73 51 290 344 215 166 19 41 59 46 42 66 58 67 87 99 81 34 73 36 37 51 64 121 130 125 137 124 144 138 139 135 158 150 143 129 141 127 138 144 184 270 41
334 176 131 130 304 218 4 21 360 23 7 69 80 62 98 106 104 59 76 72 74 53 51 49 47 67 73 65 75 82 99 116 131 157 131 140 124 113 101 109 117 130 110 72
354 37 58 138 103 170 279 310 321 345 15 53 101 76 101 40 60 95 93 88 82 72 58 51 59 49 56 57 95 86 64 73 65 82 118 123 125 120 122 109 85 93 100 112
329 15 344 278 137 180 239 275 302 47 221 91 99 110 86 95 135 126 105 90 88 92 95 90 72 58 59 58 71 92 82 68 49 75 95 108 117 120 129 118 114 104 95 102
115 91 225 25 38 88 278 295 87 216 57 124 155 145 123 107 109 106 100 102 103 101 97 92 96 89 77 71 92 85 76 47 45 44 72 75 85 89 123 127 123 134 132 122
76 168 141 113 273 266 82 111 71 75 54 21 164 166 148 132 113 117 105 109 119 117 118 113 108 107 92 91 98 111 108 90 73 64 44 54 53 42 30 55 144 143 125 128
255 141 120 130 232 235 110 74 62 59 30 19 103 132 137 131 126 124 130 130 145 133 124 119 117 117 111 112 116 120 127 110 95 92 80 73 73 55 44 50 50 57 45 34
191 150 166 204 226 121 78 76 76 70 43 20 37 124 127 129 130 137 134 122 119 117 125 122 118 113 118 123 125 122 142 141 121 117 117 105 99 95 80 63 42 85 67 57
252 176 113 211 162 144 122 89 44 64 68 29 64 109 114 120 128 138 135 136 142 135 119 116 118 125 138 134 138 137 144 143 155 151 146 153 135 124 140 133 113 62 82 60